EN

Hourly Weather Sucre

Today, 21 September, Tuesday

Time Temperature Precipitation Wind Pressure Humidity
00:00 +14°C° 0.2 mm 2 mps 543 mmHg 68%
01:00 +14°C° 0.2 mm 2 mps 542 mmHg 69%
02:00 +14°C° 0 mm 2 mps 542 mmHg 70%
03:00 +13°C° 0.1 mm 2 mps 542 mmHg 71%
04:00 +13°C° 0.1 mm 1 mps 542 mmHg 72%
05:00 +13°C° 0.1 mm 1 mps 542 mmHg 72%
06:00 +13°C° 0.1 mm 1 mps 542 mmHg 72%
07:00 +13°C° 0.1 mm 2 mps 543 mmHg 72%
08:00 +13°C° 0 mm 2 mps 543 mmHg 74%
09:00 +14°C° 0.2 mm 2 mps 544 mmHg 68%
10:00 +16°C° 0.2 mm 2 mps 544 mmHg 62%
11:00 +17°C° 0.2 mm 3 mps 545 mmHg 57%
12:00 +17°C° 0.2 mm 3 mps 544 mmHg 56%
13:00 +17°C° 0.2 mm 3 mps 543 mmHg 56%
14:00 +17°C° 0.2 mm 3 mps 543 mmHg 55%
15:00 +17°C° 0.2 mm 4 mps 542 mmHg 58%
16:00 +17°C° 0.2 mm 4 mps 542 mmHg 60%
17:00 +15°C° 0.2 mm 4 mps 542 mmHg 63%
18:00 +16°C° 0.3 mm 3 mps 542 mmHg 66%
19:00 +14°C° 0.3 mm 3 mps 542 mmHg 69%
20:00 +14°C° 0.3 mm 3 mps 542 mmHg 72%
21:00 +13°C° 0.2 mm 3 mps 542 mmHg 73%
22:00 +13°C° 0.2 mm 3 mps 542 mmHg 75%
23:00 +13°C° 0.2 mm 2 mps 542 mmHg 76%

Tomorrow, 22 September, Wednesday

Time Temperature Precipitation Wind Pressure Humidity
00:00 +13°C° 0 mm 2 mps 542 mmHg 77%
01:00 +13°C° 0 mm 2 mps 541 mmHg 77%
02:00 +13°C° 0 mm 1 mps 541 mmHg 77%
03:00 +13°C° 0 mm 1 mps 541 mmHg 78%
04:00 +12°C° 0 mm 1 mps 541 mmHg 79%
05:00 +12°C° 0 mm 1 mps 540 mmHg 80%
06:00 +13°C° 0 mm 1 mps 541 mmHg 77%
07:00 +13°C° 0 mm 1 mps 541 mmHg 75%
08:00 +13°C° 0 mm 1 mps 542 mmHg 72%
09:00 +15°C° 0 mm 2 mps 542 mmHg 64%
10:00 +16°C° 0 mm 2 mps 543 mmHg 56%
11:00 +18°C° 0 mm 3 mps 543 mmHg 48%
12:00 +19°C° 0 mm 3 mps 543 mmHg 46%
13:00 +20°C° 0 mm 3 mps 543 mmHg 43%
14:00 +21°C° 0 mm 4 mps 542 mmHg 40%
15:00 +20°C° 0.7 mm 4 mps 542 mmHg 43%
16:00 +19°C° 0.7 mm 5 mps 541 mmHg 46%
17:00 +19°C° 0.7 mm 5 mps 541 mmHg 49%
18:00 +15°C° 3.5 mm 4 mps 541 mmHg 56%
19:00 +13°C° 3.5 mm 3 mps 541 mmHg 63%
20:00 +12°C° 3.5 mm 2 mps 541 mmHg 70%
21:00 +13°C° 0 mm 2 mps 542 mmHg 67%
22:00 +13°C° 0 mm 2 mps 542 mmHg 63%
23:00 +14°C° 0 mm 2 mps 542 mmHg 60%

Day after tomorrow, 23 September, Thursday

Time Temperature Precipitation Wind Pressure Humidity
00:00 +14°C° 0 mm 2 mps 542 mmHg 60%
01:00 +14°C° 0 mm 2 mps 541 mmHg 60%
02:00 +14°C° 0 mm 2 mps 541 mmHg 61%
03:00 +13°C° 0 mm 1 mps 541 mmHg 64%
04:00 +13°C° 0 mm 1 mps 541 mmHg 67%
05:00 +13°C° 0 mm 1 mps 541 mmHg 71%
06:00 +13°C° 0 mm 1 mps 541 mmHg 70%
07:00 +13°C° 0 mm 1 mps 542 mmHg 70%
08:00 +13°C° 0 mm 1 mps 543 mmHg 69%
09:00 +14°C° 0 mm 2 mps 543 mmHg 65%
10:00 +14°C° 0 mm 3 mps 544 mmHg 61%
11:00 +17°C° 0 mm 4 mps 544 mmHg 57%
12:00 +16°C° 0.2 mm 5 mps 543 mmHg 56%
13:00 +16°C° 0.2 mm 6 mps 543 mmHg 55%
14:00 +16°C° 0.2 mm 7 mps 543 mmHg 55%
15:00 +16°C° 0.5 mm 6 mps 542 mmHg 53%
16:00 +16°C° 0.5 mm 6 mps 542 mmHg 51%
17:00 +16°C° 0.5 mm 6 mps 542 mmHg 49%
18:00 +15°C° 0.4 mm 6 mps 543 mmHg 53%
19:00 +15°C° 0.4 mm 6 mps 543 mmHg 56%
20:00 +14°C° 0.4 mm 6 mps 543 mmHg 59%
21:00 +14°C° 0 mm 5 mps 543 mmHg 61%
22:00 +13°C° 0 mm 3 mps 543 mmHg 62%
23:00 +14°C° 0 mm 1 mps 543 mmHg 64%

24 September, Friday

Time Temperature Precipitation Wind Pressure Humidity
00:00 +14°C° 0 mm 1 mps 543 mmHg 67%
01:00 +13°C° 0 mm 1 mps 542 mmHg 70%
02:00 +13°C° 0 mm 1 mps 542 mmHg 73%
03:00 +12°C° 0 mm 1 mps 542 mmHg 74%
04:00 +12°C° 0 mm 1 mps 542 mmHg 76%
05:00 +12°C° 0 mm 1 mps 542 mmHg 78%
06:00 +12°C° 0 mm 1 mps 542 mmHg 74%
07:00 +13°C° 0 mm 1 mps 543 mmHg 71%
08:00 +13°C° 0 mm 2 mps 544 mmHg 68%
09:00 +15°C° 0 mm 2 mps 544 mmHg 61%
10:00 +16°C° 0 mm 3 mps 545 mmHg 55%
11:00 +18°C° 0 mm 4 mps 545 mmHg 48%
12:00 +18°C° 0.1 mm 4 mps 545 mmHg 46%
13:00 +19°C° 0.1 mm 4 mps 544 mmHg 43%
14:00 +19°C° 0.1 mm 4 mps 544 mmHg 41%
15:00 +19°C° 0.2 mm 4 mps 544 mmHg 42%
16:00 +19°C° 0.2 mm 5 mps 543 mmHg 42%
17:00 +19°C° 0.2 mm 5 mps 543 mmHg 43%
18:00 +17°C° 0.2 mm 5 mps 543 mmHg 47%
19:00 +17°C° 0.2 mm 4 mps 543 mmHg 50%
20:00 +15°C° 0.2 mm 4 mps 544 mmHg 54%
21:00 +16°C° 0 mm 3 mps 544 mmHg 56%
22:00 +15°C° 0 mm 2 mps 544 mmHg 58%
23:00 +15°C° 0 mm 1 mps 544 mmHg 60%

25 September, Saturday

Time Temperature Precipitation Wind Pressure Humidity
00:00 +14°C° 0 mm 1 mps 543 mmHg 63%
01:00 +14°C° 0 mm 1 mps 542 mmHg 66%
02:00 +13°C° 0 mm 1 mps 542 mmHg 69%
03:00 +13°C° 0 mm 1 mps 542 mmHg 71%
04:00 +13°C° 0 mm 1 mps 541 mmHg 72%
05:00 +12°C° 0 mm 1 mps 541 mmHg 74%
06:00 +13°C° 0 mm 1 mps 542 mmHg 71%
07:00 +13°C° 0 mm 1 mps 542 mmHg 68%
08:00 +14°C° 0 mm 1 mps 543 mmHg 65%
09:00 +16°C° 0 mm 2 mps 544 mmHg 59%
10:00 +17°C° 0 mm 2 mps 544 mmHg 52%
11:00 +19°C° 0 mm 3 mps 545 mmHg 46%
12:00 +20°C° 0 mm 3 mps 544 mmHg 41%
13:00 +21°C° 0 mm 3 mps 544 mmHg 37%
14:00 +22°C° 0 mm 3 mps 544 mmHg 32%
15:00 +22°C° 0.1 mm 3 mps 544 mmHg 34%
16:00 +21°C° 0.1 mm 3 mps 543 mmHg 36%
17:00 +21°C° 0.1 mm 3 mps 543 mmHg 37%
18:00 +20°C° 0 mm 3 mps 543 mmHg 41%
19:00 +19°C° 0 mm 3 mps 543 mmHg 45%
20:00 +18°C° 0 mm 3 mps 543 mmHg 49%
21:00 +17°C° 0 mm 2 mps 543 mmHg 51%
22:00 +17°C° 0 mm 2 mps 543 mmHg 53%
23:00 +16°C° 0 mm 1 mps 543 mmHg 56%

26 September, Sunday

Time Temperature Precipitation Wind Pressure Humidity
00:00 +16°C° 0 mm 1 mps 542 mmHg 57%
01:00 +15°C° 0 mm 1 mps 542 mmHg 59%
02:00 +14°C° 0 mm 0 mps 542 mmHg 61%
03:00 +14°C° 0 mm 0 mps 541 mmHg 62%
04:00 +13°C° 0 mm 0 mps 541 mmHg 63%
05:00 +14°C° 0 mm 1 mps 541 mmHg 64%
06:00 +15°C° 0 mm 1 mps 542 mmHg 62%
07:00 +15°C° 0 mm 1 mps 542 mmHg 59%
08:00 +16°C° 0 mm 1 mps 543 mmHg 56%
09:00 +18°C° 0 mm 1 mps 543 mmHg 52%
10:00 +19°C° 0 mm 2 mps 544 mmHg 47%
11:00 +20°C° 0 mm 3 mps 544 mmHg 42%
12:00 +21°C° 0 mm 3 mps 544 mmHg 39%
13:00 +22°C° 0 mm 4 mps 544 mmHg 35%
14:00 +23°C° 0 mm 4 mps 544 mmHg 32%
15:00 +24°C° 0.1 mm 3 mps 543 mmHg 33%
16:00 +22°C° 0.1 mm 3 mps 542 mmHg 35%
17:00 +21°C° 0.1 mm 2 mps 542 mmHg 36%
18:00 +20°C° 0.2 mm 3 mps 542 mmHg 42%
19:00 +19°C° 0.2 mm 3 mps 542 mmHg 48%
20:00 +18°C° 0.2 mm 4 mps 542 mmHg 53%
21:00 +18°C° 0.1 mm 3 mps 543 mmHg 56%
22:00 +17°C° 0.1 mm 2 mps 543 mmHg 58%
23:00 +16°C° 0.1 mm 0 mps 543 mmHg 61%
Show more

We Need Your Consent

Meteoprog and our Service Providers may store and access personal data such as cookies, device identifiers or other similar technologies on your device and process such data to personalise content and ads, as well as provide social media features and to analyse the traffic.

  • Store and/or access information on your device

    Cookies, device identifiers or other information can be stored or accessed on your device for the purposes indicated above.

  • Personalised ads and content, ad and content measurement, audience insights, and products development

    Ads and content can be personalised based on a profile. More data can be added to better personalise ads and content. Ad and content performance can be measured. Insights about the audience who saw the ads and content can be derived. Such data can be used to develop or improve user’s experience, systems and software.

By clicking ‘I Agree’ you will allow the use of indicated cookies, device identifiers, web beacons or other similar technologies. Your settings can be changed in the browser on your device.

For certain purposes, legitimate interests may be relied on, rather than consent. You can read more about this in our Privacy and Cookie Policy.